DK4HPA-4 Weather Reports


Display with metric or nautical units.
time (UTC)temp
F
wind
direction
speed
MPH
gust
MPH
rain 1hr
in
rain 24hr
in
rain mn
in
humidity
%
barometer
mb
20260506091559 49 354 3.0 6.0 0.01 0.05 0.05 86 1014.8
20260506090710 48 307 3.0 9.0 0.02 0.05 0.05 86 1014.9
20260506085536 48 309 3.0 5.0 0.02 0.05 0.05 87 1014.9
20260506084625 47 329 3.0 6.0 0.03 0.05 0.05 87 1014.9
20260506083737 47 320 3.0 6.0 0.02 0.04 0.04 88 1014.8
20260506082602 47 321 3.0 5.0 0.03 0.04 0.04 89 1014.8
20260506081600 47 310 2.0 3.0 0.03 0.04 0.04 88 1014.8
20260506070537 48 352 4.0 8.0 0.00 0.02 0.00 78 1014.5
20260506060536 48 3 4.0 8.0 0.00 0.06 0.00 73 1014.5
20260506050537 48 29 4.0 9.0 0.00 0.14 0.00 71 1014.5
20260506044536 48 9 2.0 6.0 0.00 0.17 0.00 73 1014.5
20260506042526 48 337 4.0 6.0 0.00 0.19 0.00 73 1014.6
20260506041639 48 336 3.0 6.0 0.00 0.20 0.00 72 1014.5
20260506040624 48 340 3.0 6.0 0.00 0.21 0.00 72 1014.5
20260506035537 48 25 3.0 8.0 0.00 0.21 0.00 72 1014.5
20260506033624 48 324 4.0 12.0 0.00 0.25 0.00 72 1014.5
20260506030712 48 309 3.0 6.0 0.00 0.33 0.00 71 1014.7
20260506024703 48 341 5.0 8.0 0.00 0.33 0.00 69 1015.0
20260506022601 48 338 2.0 5.0 0.00 0.33 0.00 70 1015.2
20260506021537 48 36 2.0 5.0 0.00 0.33 0.00 70 1015.2
20260506015736 48 305 2.0 5.0 0.00 0.33 0.00 69 1015.4
20260506013537 48 359 2.0 5.0 0.00 0.33 0.00 71 1015.4
20260506012600 48 332 3.0 5.0 0.00 0.33 0.00 72 1015.6
20260506011751 48 346 3.0 6.0 0.00 0.33 0.00 75 1015.6
20260506010703 48 294 3.0 5.0 0.00 0.33 0.00 76 1015.6
20260506004622 48 328 3.0 6.0 0.00 0.33 0.00 76 1015.7
20260506003622 48 308 3.0 5.0 0.00 0.33 0.00 76 1015.7
20260506002631 48 330 2.0 5.0 0.00 0.33 0.00 76 1015.9
20260506001606 48 293 3.0 8.0 0.00 0.33 0.00 76 1015.8
20260506000728 48 336 2.0 5.0 0.00 0.33 0.00 77 1015.9
20260505235552 48 66 2.0 6.0 0.00 0.33 0.00 78 1016.0
20260505234703 49 323 3.0 9.0 0.00 0.33 0.00 80 1016.2
20260505232647 49 309 4.0 9.0 0.00 0.33 0.00 79 1016.0
20260505231711 49 2 2.0 6.0 0.00 0.33 0.00 80 1016.1
20260505230608 49 31 5.0 11.0 0.00 0.33 0.00 80 1016.0
20260505224702 49 337 3.0 6.0 0.00 0.33 0.00 82 1016.0
20260505223639 49 313 2.0 6.0 0.00 0.33 0.00 82 1016.4
20260505222639 49 320 2.0 3.0 0.00 0.33 0.00 82 1016.4
20260505221647 50 321 3.0 5.0 0.00 0.33 0.00 80 1016.5
20260505220624 50 332 3.0 6.0 0.00 0.33 0.00 81 1016.5
20260505215713 50 327 3.0 8.0 0.00 0.33 0.33 82 1016.5
20260505214624 50 309 2.0 5.0 0.00 0.33 0.33 82 1016.7
20260505213624 50 308 2.0 3.0 0.00 0.33 0.33 82 1016.7
20260505212737 50 318 2.0 5.0 0.00 0.33 0.33 82 1016.6
20260505211537 50 324 2.0 5.0 0.00 0.33 0.33 83 1016.7
20260505203648 51 288 1.0 3.0 0.00 0.33 0.33 80 1016.8
20260505202536 51 302 2.0 5.0 0.00 0.33 0.33 81 1016.7
20260505201624 51 322 3.0 6.0 0.00 0.33 0.33 80 1016.7
20260505195538 51 307 2.0 3.0 0.00 0.33 0.33 82 1016.6
20260505193712 51 278 1.0 3.0 0.00 0.33 0.33 81 1016.6
20260505191736 52 319 2.0 3.0 0.00 0.33 0.33 80 1016.5
20260505190600 52 298 1.0 3.0 0.00 0.33 0.33 80 1016.4
20260505185536 52 12 2.0 5.0 0.00 0.33 0.33 80 1016.4
20260505184625 52 359 2.0 6.0 0.00 0.33 0.33 80 1016.4
20260505182536 52 307 1.0 3.0 0.00 0.33 0.33 82 1016.6
20260505180601 53 299 3.0 6.0 0.00 0.33 0.33 80 1016.6
20260505174738 53 319 2.0 5.0 0.00 0.33 0.33 80 1016.7
20260505173713 53 318 3.0 6.0 0.00 0.33 0.33 79 1016.6
20260505171648 53 343 1.0 5.0 0.00 0.33 0.33 83 1016.7
20260505170713 54 296 1.0 3.0 0.00 0.33 0.33 82 1016.7
20260505164737 54 26 2.0 5.0 0.00 0.33 0.33 81 1016.7
20260505163624 54 39 2.0 6.0 0.00 0.33 0.33 83 1016.8
20260505161601 54 326 2.0 6.0 0.00 0.33 0.33 82 1016.9
20260505160600 54 332 2.0 6.0 0.00 0.33 0.33 82 1017.0
20260505152600 54 344 3.0 5.0 0.00 0.33 0.33 80 1017.2
20260505151625 54 5 2.0 6.0 0.00 0.33 0.33 81 1017.2
20260505140649 53 335 2.0 5.0 0.00 0.33 0.33 87 1017.5
20260505124536 53 263 2.0 6.0 0.00 0.33 0.33 89 1017.7
20260505123600 53 4 4.0 11.0 0.00 0.33 0.33 89 1017.7
20260505122624 53 331 4.0 8.0 0.00 0.33 0.33 89 1017.8
20260505120648 52 348 3.0 9.0 0.00 0.33 0.33 90 1018.0
20260505115536 52 348 4.0 11.0 0.00 0.33 0.33 93 1017.9
20260505114536 51 322 3.0 6.0 0.00 0.33 0.33 96 1018.0
20260505113648 50 322 4.0 6.0 0.00 0.33 0.33 96 1018.0
20260505112712 50 26 3.0 6.0 0.00 0.33 0.33 96 1018.1
20260505111537 50 316 3.0 9.0 0.00 0.33 0.33 97 1018.1
20260505100639 50 5 5.0 9.0 0.00 0.33 0.33 99 1018.2
20260505095537 50 303 3.0 8.0 0.00 0.33 0.33 99 1018.0
20260505094648 50 296 3.0 9.0 0.00 0.33 0.33 99 1018.1
20260505093607 50 347 3.0 5.0 0.00 0.33 0.33 99 1018.1
20260505092536 50 330 2.0 5.0 0.00 0.33 0.33 99 1018.1